Weather History for Big Piney, WY

Change the Weather History Date:

Thursday, July 18, 2013

  Actual Average Record
Temperature  
Mean Temperature 68 °F 63 °F  
Max Temperature 88 °F 81 °F 92 °F (2006)
Min Temperature 47 °F 44 °F 29 °F (1983)
Degree Days  
Heating Degree Days 0 3  
Month to date heating degree days 9 76  
Since 1 June heating degree days 226 381  
Since 1 July heating degree days 9 76  
Cooling Degree Days 3 1  
Month to date cooling degree days 46 10  
Year to date cooling degree days 66 12  
Since 1 June cooling degree days 66 12  
Growing Degree Days 19 (Base 50)    
Moisture  
Dew Point 40 °F    
Average Humidity 51    
Maximum Humidity 93    
Minimum Humidity 9    
Precipitation  
Precipitation 0.00 in 0.02 in 0.31 in (1997)
Month to date precipitation 0.54 0.36  
Year to date precipitation 2.24 3.62  
Sea Level Pressure  
Sea Level Pressure 30.05 in    
Wind  
Wind Speed 8 mph (NNW)    
Max Wind Speed 23 mph    
Max Gust Speed 28 mph    
Visibility 10 miles    
Events      
T = Trace of Precipitation, MM = Missing Value Source: NWS Daily Summary

Daily Weather History Graph

Daily Weather History Graph

Search for Another Location

Airport:

Trip Planner

Search our weather history database for the weather conditions in past years. The results will help you decide how hot, cold, wet, or windy it might be!

Date:

Astronomy

Jul. 18, 2013 Rise Set
Actual Time 5:59 AM MDT 8:53 PM MDT
Civil Twilight 5:25 AM MDT 9:27 PM MDT
Nautical Twilight 4:43 AM MDT 10:09 PM MDT
Astronomical Twilight 3:53 AM MDT 10:58 PM MDT
Moon 4:53 PM MDT (7/18) 1:53 AM MDT (7/18)
Length of Visible Light 16h 01m
Length of Day
14h 54m
Waxing Gibbous, 78% of the Moon is Illuminated
Jul 18
Waxing Gibbous
Jul 22
Full
Jul 29
Last Quarter
Aug 6
New
Aug 14
First Quarter

Hourly Weather History & Observations

Time (MDT) Temp. Dew Point Humidity Pressure Visibility Wind Dir Wind Speed Gust Speed Precip Events Conditions
12:53 AM 57.9 °F 52.0 °F 81% 30.06 in 10.0 mi North 10.4 mph - N/A   Partly Cloudy
1:53 AM 54.0 °F 51.1 °F 90% 30.06 in 10.0 mi NW 9.2 mph - N/A   Clear
2:53 AM 54.0 °F 50.0 °F 86% 30.05 in 10.0 mi NNW 9.2 mph - N/A   Clear
3:53 AM 52.0 °F 48.9 °F 89% 30.05 in 10.0 mi North 10.4 mph - N/A   Clear
4:53 AM 50.0 °F 46.9 °F 89% 30.07 in 10.0 mi Calm Calm - N/A   Clear
5:53 AM 51.1 °F 48.0 °F 89% 30.08 in 10.0 mi Calm Calm - N/A   Clear
6:53 AM 51.1 °F 48.9 °F 92% 30.14 in 10.0 mi Calm Calm - N/A   Clear
7:53 AM 55.9 °F 50.0 °F 80% 30.14 in 10.0 mi South 4.6 mph - N/A   Clear
8:53 AM 61.0 °F 51.1 °F 70% 30.14 in 10.0 mi South 4.6 mph - N/A   Clear
9:53 AM 66.9 °F 50.0 °F 54% 30.12 in 10.0 mi Calm Calm - N/A   Clear
10:53 AM 72.0 °F 50.0 °F 46% 30.09 in 10.0 mi Variable 4.6 mph - N/A   Clear
11:53 AM 75.9 °F 48.9 °F 38% 30.06 in 10.0 mi SE 5.8 mph - N/A   Clear
12:53 PM 81.0 °F 45.0 °F 28% 30.04 in 10.0 mi Variable 5.8 mph - N/A   Clear
1:53 PM 86.0 °F 30.0 °F 13% 30.03 in 10.0 mi NNE 10.4 mph 21.9 mph N/A   Clear
2:53 PM 87.1 °F 26.1 °F 11% 30.00 in 10.0 mi WNW 16.1 mph 23.0 mph N/A   Clear
3:53 PM 88.0 °F 21.9 °F 9% 29.99 in 10.0 mi NW 13.8 mph 27.6 mph N/A   Clear
4:53 PM 87.1 °F 21.0 °F 9% 29.98 in 10.0 mi NW 16.1 mph - N/A   Clear
5:53 PM 87.1 °F 28.9 °F 12% 29.97 in 10.0 mi NW 18.4 mph 23.0 mph N/A   Clear
6:53 PM 84.0 °F 30.9 °F 15% 29.97 in 10.0 mi NW 11.5 mph 21.9 mph N/A   Clear
7:53 PM 81.0 °F 30.9 °F 16% 29.97 in 10.0 mi NNW 10.4 mph - N/A   Clear
8:53 PM 71.1 °F 34.0 °F 26% 30.01 in 10.0 mi NNW 10.4 mph - N/A   Clear
9:53 PM 64.9 °F 35.1 °F 33% 30.02 in 10.0 mi NNW 9.2 mph - N/A   Clear
10:53 PM 60.1 °F 37.0 °F 42% 30.03 in 10.0 mi NNW 11.5 mph - N/A   Clear
11:53 PM 62.1 °F 34.0 °F 35% 30.03 in 10.0 mi NE 3.5 mph - N/A   Clear